Find Starlink 11388

NORAD ID: 62092 Int'l Des: 2024-220 Owner: SPXS Country: US Constellation: starlink operational
LEOCIRCULAR

Current View

Loading 3D Globe...

About Starlink 11388

Starlink 11388 (NORAD 62092) is a starlink constellation satellite (v2 mini d2c) launched Nov 25, 2024 by SPXS of US. It operates in LEO, CIRCULAR orbit with a mass of 960.00 kg.

About Starlink 11388

Description loading...

Upcoming Passes

Passes for default location (London). Set your location on the main map for personalized predictions.

Altitude History

Loading altitude history...

Two-Line Element Set

1 62092U 24220E 26171.41668980 -.00013770 00000-0 -10406-3 0 9992
2 62092 43.0006 143.9484 0001611 259.9892 278.8182 15.70823936 6017
Epoch: Jun 20, 2026 • Age: 38 hours

Current Status

Altitude 366.1 km
Velocity 7.69 km/s
Sub-Earth Point -36.05°S, 88.89°E
Launch Date Nov 25, 2024
Age 1.5 years
Type internet

Technical Details

Classification Payload
Mass 960.00 kg
Dry Mass 910.00 kg
Total Mass 960.00 kg
Length 0.30 m
Diameter 4.10 m
Span 29.00 m
Shape Box + pan
Manufacturer SPXS
Bus Type Starlink V2MD
Phase Status In Orbit
Owner/State SPXS/US

Most Searched